Theta_e
319 319 322 324 325 325 325 326 326 326 325 324 323 322 321 321 322 320 321 322 323 322 324 331 332 329 327 327 324 322 321 319 316 314 312 310 308 307 306 306 306 306 305 306
321 321 322 323 325 326 326 326 326 325 325 325 325 325 324 322 322 322 320 320 321 321 325 332 329 326 324 325 323 321 319 317 316 314 312 311 308 307 306 305 305 304 304 304
324 325 324 324 324 326 326 327 326 326 326 326 326 326 325 324 323 323 323 321 321 322 322 332 327 324 322 323 323 321 319 317 316 315 313 309 308 306 305 304 304 303 303 303
325 325 326 326 327 327 328 326 327 326 326 329 325 327 326 325 325 325 324 323 322 321 323 330 326 323 321 321 322 320 318 317 316 314 311 308 307 306 306 305 303 302 301 301
325 326 327 328 328 328 328 327 327 327 327 327 327 326 326 325 325 325 325 324 323 322 322 329 325 322 320 320 320 320 318 317 315 313 311 308 307 308 306 304 303 301 300 300
325 324 325 325 325 324 325 326 327 327 325 329 326 326 327 325 324 324 324 323 323 322 322 327 324 321 319 319 318 318 318 317 314 313 312 309 309 306 305 304 303 302 299 298
325 325 324 324 324 323 323 324 329 329 329 330 325 327 327 323 322 322 322 321 322 323 324 325 322 320 319 318 317 316 317 316 313 312 312 310 307 305 305 304 303 300 298 296
324 326 324 323 325 324 323 323 329 331 332 329 326 329 325 322 321 322 321 321 322 322 323 324 322 320 319 317 316 315 314 314 312 311 310 308 306 305 305 304 302 299 297 295
322 321 319 319 322 323 323 323 322 326 326 328 326 325 324 323 322 322 320 321 322 321 320 320 321 320 318 315 314 312 312 311 309 307 306 305 304 303 301 300 298 296 294 293
318 320 318 317 315 317 320 320 323 328 332 328 324 323 326 323 323 322 321 320 319 319 318 318 318 318 316 314 312 311 309 308 306 305 304 303 301 300 299 297 295 293 291 292
316 317 317 317 315 314 315 318 320 320 325 329 327 323 323 322 322 320 318 316 316 317 318 317 317 316 314 312 311 309 308 305 304 303 302 300 299 297 295 294 293 291 291 291
315 317 318 317 317 316 316 316 316 320 322 321 327 327 319 318 317 317 316 316 314 314 314 316 317 316 315 313 310 309 306 304 302 301 299 298 296 294 293 292 291 291 291 291
316 319 316 314 314 316 318 316 316 317 319 319 322 320 317 316 316 315 314 314 314 314 313 314 314 316 314 312 308 307 305 302 300 299 297 296 295 294 293 292 291 291 291 290
312 316 318 315 319 316 318 315 314 314 317 320 320 319 317 317 317 314 313 313 312 314 313 312 314 314 314 312 309 306 302 300 299 297 296 295 294 294 293 292 291 291 290 289
312 314 313 313 313 315 316 315 315 315 315 317 316 315 315 313 312 313 312 311 311 311 312 312 312 313 312 311 306 303 301 300 299 297 296 295 294 293 292 290 290 290 289 289
312 314 312 313 312 314 317 314 313 313 314 314 313 314 312 311 311 311 311 310 310 310 310 310 310 311 312 310 309 306 302 301 299 297 296 295 293 292 290 289 290 289 289 289
314 314 313 315 311 311 314 314 312 310 311 311 312 312 312 311 310 310 310 310 309 309 310 309 310 310 310 312 310 307 304 301 300 298 295 293 291 290 290 289 288 288 288 287
314 316 315 315 312 315 312 310 312 312 310 310 309 309 310 310 310 308 308 309 311 312 311 311 311 311 311 310 311 308 306 302 300 296 293 292 290 290 288 287 287 287 287 285
312 314 315 315 314 311 310 310 310 309 309 309 307 308 308 307 308 308 310 311 311 309 299 303 305 307 309 308 308 306 303 299 296 291 291 290 289 288 287 286 286 285 285 283
310 313 314 315 314 315 313 310 310 309 311 310 310 309 308 307 309 315 310 309 308 305 300 297 299 305 307 306 304 302 299 296 292 291 290 289 288 287 286 285 284 284 283 282
311 312 313 314 313 311 309 308 308 309 310 307 307 307 306 307 312 312 310 307 307 301 300 303 298 301 303 303 302 297 294 293 293 291 289 287 286 286 285 284 283 283 283 282
309 312 313 313 314 313 309 308 310 310 310 308 307 306 307 311 303 300 301 302 305 305 305 303 302 298 298 299 299 296 293 292 291 289 288 286 285 284 284 283 283 283 282 282
309 309 312 312 312 311 309 310 311 311 310 309 308 306 306 311 301 300 297 299 302 304 305 304 303 298 295 295 296 293 291 291 289 287 285 284 284 283 283 283 282 283 282 282
308 308 310 311 310 309 310 309 309 308 307 307 307 306 307 300 298 299 299 300 302 303 304 304 302 298 295 294 292 292 291 289 287 285 284 283 283 283 283 283 283 283 283 283
305 304 309 310 309 309 308 308 309 307 307 306 306 306 308 308 305 302 303 304 304 304 304 303 302 299 296 294 292 290 288 288 286 285 284 284 283 283 283 283 283 283 283 283
300 302 304 308 307 307 309 308 308 307 306 306 306 306 306 306 308 307 306 305 305 304 304 302 301 299 296 293 290 288 287 286 286 285 285 284 284 284 283 283 282 283 283 282
Wind_Speed
14 11 17 22 20 21 20 20 22 18 18 17 14 15 15 17 16 14 12 10 13 12 16 26 30 27 25 28 27 25 23 21 21 20 20 19 18 16 13 12 11 10 10 10
17 20 21 21 21 21 19 16 18 18 18 18 19 21 20 15 18 16 18 16 14 13 11 17 27 26 24 25 24 24 23 22 20 19 18 19 19 16 15 13 12 11 11 9
22 17 25 22 20 20 20 17 18 21 20 22 20 24 19 20 22 21 19 18 19 16 14 18 19 23 23 22 22 22 22 21 20 19 20 23 21 19 16 13 12 10 10 10
23 22 24 23 18 14 20 17 20 21 17 14 15 19 17 17 17 20 24 20 18 16 15 20 19 22 22 18 20 21 22 20 19 19 18 20 18 18 18 17 13 11 10 10
24 19 19 25 26 21 23 20 18 20 14 18 21 11 21 14 19 20 17 20 15 14 8 22 21 25 25 21 19 19 21 22 17 17 17 19 18 18 21 19 15 12 11 10
27 23 21 15 14 15 17 19 18 14 11 16 17 14 29 11 4 13 5 13 7 10 6 21 27 29 25 23 22 18 17 20 18 16 16 18 18 21 21 19 15 13 11 9
25 29 27 23 20 14 14 10 9 9 10 13 7 14 17 12 12 13 12 12 12 10 9 20 19 17 22 23 24 21 17 17 18 16 13 16 20 20 20 18 16 15 12 9
12 11 26 20 27 19 16 15 9 10 11 15 13 9 1 18 16 17 15 10 11 10 8 13 16 16 19 20 20 17 13 12 16 15 13 12 16 17 18 15 17 15 14 11
9 12 3 8 6 18 17 17 17 20 16 9 9 5 16 9 11 11 9 12 12 9 7 7 10 15 17 20 18 16 14 12 15 13 13 14 14 15 15 15 15 15 13 11
7 11 11 5 4 8 12 12 5 1 4 9 13 14 3 5 8 9 9 9 8 7 7 7 6 13 15 18 18 17 15 18 16 15 14 14 15 15 17 15 14 14 15 12
6 8 11 6 6 8 10 12 13 9 6 3 5 0 8 10 11 8 8 9 7 5 4 2 2 8 12 19 20 19 15 18 17 15 14 12 13 16 16 16 15 12 13 13
3 4 10 15 16 8 14 12 10 9 17 7 6 6 9 8 8 9 10 8 5 5 4 3 4 6 11 15 18 17 16 17 20 16 14 15 15 14 13 14 13 13 12 11
3 1 5 9 13 2 5 8 8 11 6 12 11 5 10 8 7 4 4 6 6 7 3 3 2 5 12 17 20 19 17 20 21 21 20 19 19 18 16 14 13 12 13 11
2 5 7 11 1 3 3 4 5 5 3 6 9 10 3 6 7 9 11 12 11 9 8 5 5 4 11 18 18 20 23 26 25 24 24 24 23 22 20 16 15 13 11 11
6 13 14 15 16 12 9 10 14 12 12 7 16 12 19 12 10 15 14 10 11 10 8 7 9 8 9 10 19 22 23 26 25 23 24 21 24 22 20 20 17 14 11 10
13 10 13 17 17 17 16 19 20 19 21 19 19 20 19 14 16 15 12 11 10 8 8 6 8 6 17 19 20 22 26 30 30 26 23 23 24 23 27 23 18 14 14 13
12 11 14 16 15 17 15 24 20 21 21 20 18 20 18 16 13 13 9 11 11 3 2 2 7 6 5 10 24 26 26 26 27 24 23 28 27 26 21 20 19 17 14 16
14 17 12 10 12 15 18 17 21 24 21 16 18 16 17 15 10 9 6 2 7 8 7 6 5 7 6 6 9 21 23 27 28 27 30 31 29 26 25 24 20 21 18 15
17 16 11 11 12 16 15 18 17 11 13 15 15 15 14 13 10 6 11 10 9 7 3 5 4 5 5 2 9 19 22 25 27 28 31 31 31 30 27 24 24 23 21 17
21 18 15 10 10 17 18 22 20 12 5 22 20 13 14 12 6 3 10 11 8 8 5 3 4 4 4 4 9 21 25 28 26 29 29 29 29 30 28 26 23 20 19 18
18 19 17 15 15 13 17 15 5 9 9 6 8 6 4 3 4 11 10 6 7 5 6 7 7 6 6 8 9 13 18 19 26 27 26 26 27 28 27 25 22 22 20 19
17 8 16 18 14 20 21 17 12 15 7 5 8 4 4 10 7 6 6 5 5 5 7 8 9 7 8 7 8 10 12 16 21 24 27 27 28 27 27 26 24 23 20 19
18 17 6 10 12 9 8 15 14 14 13 10 9 6 7 9 7 7 5 4 4 7 8 9 7 12 7 10 12 13 13 18 23 24 25 27 27 26 25 25 24 21 20 18
19 17 15 9 13 11 14 12 10 6 4 7 8 8 4 8 9 7 5 7 7 9 9 8 7 10 7 8 10 13 17 20 24 24 24 25 27 25 24 23 22 19 17 17
6 10 4 8 9 12 13 3 20 8 9 9 8 5 7 10 8 7 7 8 8 10 9 8 9 9 9 11 12 14 17 22 23 23 24 24 24 24 23 21 21 17 17 16
10 10 8 5 11 8 15 7 10 8 8 9 10 5 4 9 10 9 7 9 9 9 9 10 10 9 12 13 13 14 18 22 24 23 23 23 24 23 22 21 13 13 16 14
Wind_Direction
202 216 228 231 226 237 257 272 285 289 298 304 273 246 256 280 263 232 256 234 223 228 197 172 157 160 166 154 156 158 162 159 155 152 148 144 140 136 128 125 116 112 100 102
239 228 241 245 246 252 253 268 271 276 273 275 276 274 272 243 261 253 218 231 239 239 218 157 144 147 158 149 156 162 162 167 169 166 161 157 147 146 138 131 118 109 104 99
231 239 225 239 256 260 253 247 264 275 285 286 293 279 272 255 248 248 242 215 212 218 227 154 143 141 153 155 166 167 167 176 184 177 159 139 143 136 134 133 118 111 109 102
247 253 265 265 251 255 265 263 259 258 268 267 262 283 269 280 285 238 228 227 206 214 208 152 147 146 155 164 172 177 175 183 199 164 149 151 152 160 162 145 135 122 110 97
249 247 241 250 254 259 260 272 266 281 288 296 263 265 271 248 245 245 241 207 204 186 226 150 153 154 159 170 177 187 182 186 184 166 169 168 179 150 138 132 131 123 110 99
258 259 269 280 259 261 277 269 270 258 264 258 259 245 276 255 328 22 343 149 169 163 192 146 152 151 158 166 170 185 191 189 174 180 184 184 154 142 137 141 148 141 126 117
246 250 255 256 256 249 265 247 243 238 221 246 245 242 244 81 76 50 46 67 57 52 54 127 136 144 154 163 163 177 199 191 170 187 194 189 154 150 148 155 154 141 138 137
263 248 223 226 234 234 234 229 237 233 245 261 311 268 56 65 52 45 28 31 70 49 31 126 133 144 155 153 153 171 177 190 170 185 184 177 152 149 147 153 144 148 155 163
281 245 85 350 235 213 236 251 242 264 279 299 266 309 98 65 96 68 50 40 39 41 39 31 119 145 148 141 152 165 178 178 159 163 157 145 140 143 140 144 150 150 160 146
278 284 282 110 19 282 256 270 279 80 226 240 254 257 33 62 74 91 81 62 53 42 25 20 16 123 141 152 159 167 188 175 160 157 151 151 150 152 152 146 153 151 150 153
288 268 270 268 202 255 235 240 251 254 180 257 290 278 89 67 68 81 71 60 46 59 40 91 271 145 146 153 157 164 186 155 162 154 148 146 145 149 152 152 160 155 148 161
91 316 280 270 259 334 310 298 270 244 241 244 224 276 103 92 84 49 26 10 1 347 56 7 167 170 163 152 150 162 154 152 144 147 143 159 160 159 147 153 146 158 159 159
32 288 282 273 280 263 343 350 358 331 297 246 254 244 80 46 0 25 348 310 284 297 245 142 304 173 160 153 150 158 162 149 157 173 168 175 172 160 164 157 162 167 160 150
237 212 220 248 222 131 186 306 5 66 326 323 269 298 248 219 264 293 287 276 270 241 247 195 163 200 168 162 160 157 160 171 172 176 175 176 175 174 168 168 158 171 158 149
227 237 237 246 256 198 209 222 236 239 235 220 264 270 266 275 270 260 256 251 256 252 255 256 183 177 183 182 156 163 176 186 188 181 178 182 184 174 166 158 162 163 154 166
218 237 249 255 252 220 223 234 235 236 233 226 242 256 262 271 261 259 265 261 255 252 254 254 272 218 178 186 191 182 184 183 185 186 182 180 175 174 165 166 158 165 166 151
232 244 234 241 245 259 243 244 249 241 239 237 241 248 259 263 262 265 247 241 246 283 190 183 40 6 13 188 187 187 187 182 186 177 168 172 180 175 171 156 164 162 158 165
246 226 234 247 245 244 244 242 234 240 246 255 244 261 252 260 267 271 235 360 66 63 57 57 35 341 344 346 188 181 179 175 170 169 171 182 180 177 168 163 165 166 161 164
230 244 238 234 235 249 273 234 238 231 246 255 260 264 274 276 281 268 83 78 88 97 96 37 359 299 298 205 143 152 142 153 164 163 175 176 178 171 170 165 164 168 165 163
235 232 241 216 234 242 242 242 250 257 210 252 250 253 262 263 260 122 120 119 118 118 133 197 235 272 238 189 168 161 158 164 166 174 177 182 180 175 170 168 164 172 165 160
214 229 234 239 245 248 251 242 204 210 241 262 257 253 264 259 71 110 114 95 123 163 198 184 182 226 228 206 190 177 171 173 184 186 182 179 177 174 172 169 164 164 160 159
260 236 227 227 237 243 238 252 186 214 267 261 191 210 238 117 122 125 139 178 193 211 218 200 180 195 220 223 205 180 177 183 184 179 173 171 174 172 167 161 162 163 162 159
249 246 236 235 236 254 252 238 257 206 200 208 208 188 215 137 171 172 187 193 230 232 231 221 215 148 193 214 200 189 185 183 173 167 163 165 167 164 163 161 162 164 164 164
248 244 243 245 246 283 299 302 253 171 216 227 190 200 183 154 170 176 198 219 218 219 218 213 183 143 175 196 198 202 193 187 174 163 160 158 154 157 162 164 166 167 172 175
310 335 306 244 264 302 246 232 264 205 213 235 236 197 147 165 182 169 199 218 219 219 210 203 193 176 187 184 182 185 190 183 165 159 158 155 155 159 161 167 174 174 184 184
255 257 269 278 313 323 272 188 194 222 246 251 244 213 252 193 175 193 200 198 226 231 213 194 202 191 173 176 173 179 180 183 163 158 161 160 159 161 164 165 147 163 172 173